User: anonymous   Login
Location: Unspecified
(0.0000°N, 0.0000°E)
Time: 12:29:22
(UTC+00:00)
Language:

UNISAT 5 - Orbit

View from above orbital plane
View from above orbital plane
View from above satellite
View from above satellite

Ground track
Ground track

The orbit data is extracted from the following two-line orbital elements,

1 39421U 13066F   17204.84743417 +.00000163 +00000-0 +23685-4 0  9995
2 39421 097.6410 260.5715 0032670 115.7479 244.7115 14.87383299198204
Epoch (UTC): 23 July 2017 20:20:18
Eccentricity: 0.0032670
inclination: 97.6410°
perigee height: 583 km
apogee height: 629 km
right ascension of ascending node: 260.5715°
argument of perigee: 115.7479°
revolutions per day: 14.87383299
mean anomaly at epoch: 244.7115°
orbit number at epoch: 19820

The dashed part of the orbit path shows where the satellite is in the earth's shadow,  

DLR